Location: Barcelona
(41.3830°N, 2.1830°E)
Time: 15:36:33
(UTC+02:00)

ISS - Pass Details

Date: 13 September 2019
Orbit: 411 x 421 km, 51.6° (Epoch: 18 September)

Event Time Altitude Azimuth Distance (km) Brightness Sun altitude
Exits shadow 05:30:56 27° 351° (N) 839 -2.1 -22.0°
Maximum altitude 05:31:53 32° 26° (NNE) 732 -2.1 -21.8°
Drops below altitude 10° 05:34:57 10° 92° (E) 1,489 -0.1 -21.3°
Sets 05:37:10 0° 102° (ESE) 2,352 0.9 -21.0°
